Terminal Aerodrome Forecast
Issued by NWS Salt Lake City, UT

Home | Current Version | Previous Version | Text Only | Print | Product List | Glossary On
Versions: 1 2 3 4 5 6 7 8 9 10 11 12 13 14 15 16 17 18 19 20 21 22 23 24 25 26 27 28 29 30 31 32 33 34 35 36 37 38 39 40 41 42 43 44 45 46 47 48 49 50
000
FTUS45 KSLC 180530
TAFSLC
TAF
KSLC 180530Z 1806/1912 15005KT P6SM SCT040 BKN060
     FM181500 17004KT P6SM SCT050 BKN070
     FM182000 30005KT P6SM SCT060 BKN080
     FM190300 15005KT P6SM SCT080 SCT120=

USA.gov is the U.S. government's official web portal to all federal, state and local government web resources and services.